SLS DEB

基本信息
目录编号:
55906
目录名称:
SLS DEB
国际标识:
2022-156F
轨道中心:
EARTH
物体状态:
已陨落(2024-01-25)
发射日期:
2022-11-16 UTC
轨道信息
数据来源: 国际轨道数据
星历时间: 2024-01-23T03:47:48+0800
半长轴: 6781.255km
偏心率: 0.0129879
轨道倾角: 30.293°
近地点辐角: 232.236°
升交点赤经: 67.773°
平近点角: 126.645°
近地点: 315.045km
远地点: 491.195km
周期: 92.624分钟
每日圈数: 15.546681
详细信息
发射场:
AFETR
轨道高度:
LEO
数据来源:
AOE Integration Group
参考系:
TEME
时间系统:
UTC
历元类型:
SGP4
2D轨道图
3D轨道图
轨道高度分析图
轨道倾角分析图
轨道综合分析图
查看轨道综合分析图